Temp_Advection
nan nan nan nan nan nan nan nan nan nan nan nan nan nan nan nan nan nan nan nan nan nan nan nan nan nan nan nan nan nan nan nan nan nan nan nan nan nan nan nan nan nan nan
nan -0 -0 -0 -0 -0 -0 -1 -1 -1 -1 -1 -1 -1 -1 -1 -1 -1 -1 -1 -1 -1 -1 -1 -1 -1 -1 -2 -2 -2 -2 -1 -1 -1 -1 -1 0 1 1 -1 -2 -1 nan
nan -0 -0 -0 -0 -1 -1 -1 -0 -1 -1 -1 -1 -1 -1 -1 -1 -1 -1 -1 -1 -1 -1 -1 -1 -1 -1 -1 -1 -2 -3 -2 -2 -2 -0 -1 -1 1 1 1 -1 -2 nan
nan -0 -1 -1 -1 -1 -0 -1 -1 -1 -1 -1 -1 -1 -1 -1 -1 -1 -1 -1 -1 -1 -1 -1 -1 -1 -1 -1 -1 -1 -1 -2 -2 -2 -2 -1 -1 -0 1 1 0 -1 nan
nan -1 -1 -0 -1 -1 -1 -1 -1 -1 -1 -0 -0 -0 -0 -0 -0 -1 -1 -1 -1 -2 -2 -1 -1 -1 -1 -1 -1 -1 -0 -1 -2 -2 -2 -1 -1 -1 -0 1 1 0 nan
nan -0 -0 -0 -0 -1 -1 -1 -1 -0 -0 -0 -0 -0 -0 0 -0 -1 -1 -1 -1 -1 -1 -1 -1 -2 -2 -1 -1 -1 -1 -1 -1 -2 -2 -1 -1 -1 -0 1 1 1 nan
nan -0 -0 -0 -0 -0 -0 -0 -0 -0 -0 -0 -0 -0 -1 -0 -0 -1 -1 -1 -1 -1 -1 -1 -1 -1 -1 -2 -1 -1 -2 -2 -1 -1 -2 -2 -1 -2 -1 0 1 1 nan
nan -0 -0 -0 -0 -0 -0 -0 -0 -0 -0 -0 -0 -0 -0 -0 -1 -1 -1 -1 -1 -1 -1 -1 -1 -1 -1 -1 -1 -1 -2 -2 -3 -2 -1 -1 -1 -1 -1 -1 0 1 nan
nan -0 -0 -0 -0 -0 -0 -0 -0 -0 -0 -0 0 -0 -1 -1 -0 -1 -1 -0 -1 -1 -1 -1 -1 -1 -1 -1 -1 -1 -2 -3 -3 -2 -2 -0 -0 -1 -1 0 1 1 nan
nan -0 -0 -0 -0 -0 -0 -0 -0 -0 -0 -0 -0 -0 -1 -1 -0 -1 -1 -0 -0 -1 -1 -1 -0 -0 -1 -1 -1 -0 -1 -2 -2 -3 -2 -1 -1 -1 -1 0 0 1 nan
nan -0 0 0 -0 -0 -0 0 -0 -0 -0 0 -0 -0 -0 -0 -0 -1 -1 -0 -0 -1 -0 -1 -0 1 1 0 -0 -0 -0 -1 -1 -1 -2 -2 -2 -1 -1 0 1 1 nan
nan -0 -0 0 0 -0 -0 -0 -0 -0 -1 -1 -1 -0 0 0 -0 0 -1 -1 -0 -0 -1 -0 -1 0 2 2 1 0 1 1 -1 -1 -2 -2 -1 -1 -1 1 1 1 nan
nan 0 -0 0 0 -0 -0 -1 -1 -1 -1 -2 -1 -1 -0 -0 -0 0 -0 -0 -0 -0 -0 1 -1 -1 1 1 2 1 0 -0 -1 -1 -2 -1 -1 -0 0 1 1 0 nan
nan 0 -0 -0 -0 -0 -0 -1 -1 -1 -1 -1 -1 -0 -1 -0 -0 -0 -0 -0 -0 -1 -0 1 0 -1 0 -1 -0 0 0 -0 -0 -0 -0 -0 0 0 0 0 0 -0 nan
nan 0 0 -0 -0 -0 0 0 -1 -0 0 -0 -0 -0 -0 -0 -0 -0 -0 -0 -1 -1 -0 -0 1 -1 -1 -1 -0 -0 -0 -0 -0 0 0 0 0 0 0 0 0 -0 nan
nan 0 -0 -0 -0 -0 -0 0 -0 0 1 1 -0 -0 -0 -0 -0 -0 -1 -1 -0 -0 -0 -1 0 -1 -2 -0 -1 -1 -0 -0 -0 -0 -0 -0 0 0 0 0 -0 -0 nan
nan 0 -0 -0 -0 -0 -0 -1 -0 -0 0 1 1 0 -0 -0 -0 -0 -1 -1 0 0 -1 -1 -1 0 -1 -0 -1 -1 -0 0 -0 -0 -0 -0 -0 -0 -0 -0 -0 -0 nan
nan 0 0 0 -0 0 -0 0 -0 -1 -0 0 1 1 1 1 0 0 -0 -1 -1 -1 -1 -1 -1 -0 -0 -0 -0 -0 -1 -1 -1 -1 -0 -0 -0 -0 -0 -0 -0 -0 nan
nan 0 0 0 0 0 0 0 0 -0 -0 -0 -0 1 1 1 1 1 1 -0 -2 -2 -1 -1 -1 -1 -0 -0 -0 -0 -1 -1 -1 -1 -0 -0 -0 -0 -0 -0 -0 -0 nan
nan -0 -0 -0 0 0 0 0 -0 -0 -0 -0 -0 -1 -0 -0 -0 0 1 0 -0 -1 -1 -1 -1 -1 -1 -1 -1 -1 -1 -1 -0 -0 -0 -0 -0 -0 -0 -0 -0 -0 nan
nan -0 -0 0 0 -0 0 -0 -0 -0 -0 -0 -0 0 -0 -0 -0 -0 -0 0 0 -0 -0 -1 -1 -1 -1 -1 -1 -1 -0 -0 -1 -1 -0 -0 -1 -1 -0 -0 -0 -0 nan
nan -0 -0 -0 0 0 0 0 0 0 -0 -0 -0 -0 0 0 0 0 0 1 1 1 0 -0 -1 -1 -1 -1 -1 -1 -1 -0 -0 -1 -1 -0 -0 -0 -0 -0 -0 -0 nan
nan -0 -0 -0 0 0 0 0 0 0 -0 0 -0 -0 -0 0 0 0 0 0 1 1 1 1 0 -1 -1 -1 -0 -0 -0 -0 -0 -0 -1 -1 -0 -0 -1 -1 -0 -0 nan
nan -0 -0 0 0 0 0 0 0 0 -0 -0 -0 -0 -0 0 0 0 0 0 0 0 1 1 1 0 -0 -1 -1 -0 -0 -0 -0 -0 -1 -1 -1 -0 -1 -1 -1 -0 nan
nan 0 0 0 0 0 0 0 0 0 0 -0 -0 -0 -0 0 0 0 0 0 0 0 0 1 1 1 0 -0 -1 -0 0 0 -0 -0 -1 -1 -0 -0 -0 -1 -1 -1 nan
nan nan nan nan nan nan nan nan nan nan nan nan nan nan nan nan nan nan nan nan nan nan nan nan nan nan nan nan nan nan nan nan nan nan nan nan nan nan nan nan nan nan nan
Wind_Speed
5 6 10 14 17 19 21 22 23 23 23 24 25 26 27 28 29 30 31 31 29 26 24 25 28 30 37 27 21 29 39 40 40 37 36 36 40 39 38 37 37 38 38
9 12 15 17 18 19 19 20 21 22 23 25 26 28 28 28 28 29 28 24 29 32 32 32 31 34 32 36 39 40 29 31 41 41 41 37 38 40 39 37 34 33 36
14 16 15 15 16 18 19 21 23 25 26 27 28 28 27 30 32 29 25 29 33 35 36 37 38 37 37 37 36 37 40 43 32 38 43 42 36 36 38 37 38 32 31
12 13 14 15 18 19 21 23 25 26 27 28 27 29 30 28 25 22 30 36 38 40 43 44 45 43 39 36 34 36 32 33 36 43 35 44 44 37 35 37 38 33 30
13 14 15 17 19 21 22 24 26 26 27 29 33 30 26 25 23 33 35 37 42 44 43 41 38 36 34 34 33 30 30 32 32 35 40 35 41 38 37 35 37 36 33
14 15 17 19 21 22 24 26 26 27 30 34 32 30 30 31 33 33 36 37 37 38 43 46 43 39 40 40 36 39 39 37 37 36 35 38 38 38 38 33 34 30 32
14 16 19 21 22 23 25 26 27 30 33 33 31 32 36 35 32 30 32 36 39 38 39 41 44 42 37 37 38 39 42 39 36 35 37 37 37 41 40 36 33 32 32
13 17 21 23 24 25 26 26 30 32 32 31 34 36 35 35 30 32 34 36 39 40 40 41 41 42 41 35 37 41 45 44 41 37 37 37 39 37 41 40 31 29 30
15 19 22 24 24 25 25 28 31 31 31 33 34 35 36 35 32 34 34 39 42 41 43 43 42 43 44 39 38 41 43 46 41 38 35 37 38 35 41 34 30 29 34
16 20 22 23 23 23 25 28 28 30 31 34 34 35 35 37 34 34 36 38 41 43 46 48 45 42 44 42 40 42 45 45 39 38 35 28 31 30 41 32 29 32 32
18 21 22 22 21 23 25 25 29 30 32 34 36 37 35 34 39 35 34 37 40 44 49 50 50 51 47 48 46 47 50 46 42 39 37 30 28 29 32 31 31 31 31
19 22 21 21 21 23 24 27 27 30 32 35 38 40 39 40 41 35 37 36 39 41 47 54 59 60 57 49 41 40 39 39 41 40 34 31 29 33 35 32 29 28 30
21 21 20 20 21 22 25 26 28 28 30 34 36 40 43 42 42 43 42 41 41 43 48 50 55 54 41 28 27 16 17 23 28 28 25 25 31 33 25 22 24 25 25
21 20 19 19 20 22 22 24 27 27 29 31 35 39 40 42 43 42 45 45 43 45 44 50 53 51 45 24 23 20 5 7 11 18 20 15 12 15 18 17 17 18 21
20 19 18 18 20 20 21 25 27 25 23 26 28 31 36 39 38 36 37 37 39 37 38 46 50 55 51 42 20 17 13 8 3 2 3 3 5 7 10 13 14 14 17
18 17 17 18 19 19 22 24 26 26 24 22 21 24 28 29 31 33 32 30 31 30 32 40 48 50 51 48 32 17 16 13 10 7 4 1 3 6 6 7 10 12 13
17 16 16 18 18 20 22 25 30 29 26 26 23 23 24 28 31 31 29 29 27 25 27 31 38 43 47 40 41 34 29 22 14 13 12 11 8 5 2 2 4 6 8
15 15 16 17 17 20 22 24 26 30 32 32 30 28 28 28 30 29 27 29 27 25 25 26 30 33 36 37 34 31 29 24 21 18 16 14 12 10 8 7 6 6 7
14 13 15 15 17 20 22 23 25 28 30 31 33 33 33 34 33 31 28 29 29 27 26 23 23 25 27 28 28 25 24 24 23 22 21 18 17 15 11 11 10 9 9
12 13 15 15 17 19 21 23 25 27 28 30 32 34 35 37 38 36 34 30 28 27 26 23 21 20 20 21 21 23 22 22 22 20 21 21 19 17 16 13 14 15 15
11 13 15 15 17 19 20 22 24 26 27 28 30 30 31 32 35 34 33 32 30 27 25 24 21 20 18 16 17 16 15 17 20 21 21 22 22 21 20 18 16 13 17
12 15 15 16 16 18 19 21 22 24 25 27 29 30 30 31 32 32 31 30 30 29 25 24 23 21 19 17 16 15 16 15 17 21 21 21 21 20 21 21 21 19 17
14 15 15 15 16 17 18 19 22 23 25 27 28 30 31 32 32 32 32 32 31 30 27 24 24 23 20 18 16 13 12 12 13 15 17 18 20 21 21 22 22 23 21
15 15 15 15 16 16 17 19 21 22 24 26 28 29 31 31 32 32 33 33 34 35 33 29 25 23 22 20 19 18 16 12 12 15 16 17 18 19 20 20 20 21 23
15 14 14 15 16 16 17 19 20 22 24 26 28 30 31 32 32 32 33 34 36 37 35 32 28 25 22 22 22 22 22 21 19 18 18 18 18 18 18 19 19 20 21
14 13 14 15 15 16 17 19 20 22 25 26 28 29 31 33 33 34 34 35 37 37 37 34 32 28 24 23 22 23 24 26 26 25 24 22 21 20 20 19 19 19 21
Wind_Direction
234 284 302 308 316 321 323 324 326 327 328 328 326 324 321 319 316 313 311 312 315 312 304 301 299 296 280 290 287 296 283 280 272 277 280 278 278 280 275 270 264 261 257
316 314 316 317 321 327 337 340 341 340 338 336 333 331 329 328 327 325 324 324 312 310 309 307 302 297 300 303 302 292 286 286 268 269 273 275 276 276 283 285 276 265 260
317 317 321 330 340 347 347 345 343 341 339 336 335 334 331 328 326 328 325 313 310 309 306 306 306 306 303 304 302 302 300 285 286 272 263 268 270 273 276 280 283 278 269
333 339 342 348 350 348 344 341 338 339 339 339 340 335 330 332 333 322 315 312 308 305 302 301 302 306 305 305 300 300 296 290 292 280 278 264 265 264 270 272 279 282 280
347 349 351 348 344 341 339 340 341 341 341 339 335 337 333 331 323 318 316 312 311 311 307 305 301 299 296 290 293 286 288 292 288 291 278 272 253 254 260 270 277 283 285
346 346 343 340 340 340 341 340 341 342 338 335 334 334 334 330 326 317 317 316 310 307 307 307 307 303 298 291 286 284 285 288 286 279 284 271 263 254 271 270 274 275 277
336 334 335 337 337 339 337 339 341 338 335 334 336 334 330 330 329 328 320 312 311 312 311 308 309 309 305 299 295 290 286 283 276 280 272 272 266 261 268 263 268 273 272
322 325 330 332 335 335 336 338 337 337 335 336 334 333 333 333 334 331 328 320 316 315 312 310 309 307 305 297 288 292 288 287 284 275 273 265 267 265 262 259 265 275 273
318 324 327 330 332 332 336 336 336 335 335 335 336 336 337 338 337 334 332 322 320 318 315 311 309 305 302 300 295 292 288 283 283 279 273 268 263 259 258 246 247 252 265
322 326 326 328 330 333 334 334 336 335 337 338 338 341 343 340 336 335 330 328 323 323 321 317 310 303 299 296 291 288 285 281 283 283 281 264 270 251 251 242 243 246 258
322 323 326 328 331 333 334 337 338 340 339 341 342 344 342 338 337 334 334 329 328 324 318 318 318 317 304 297 291 283 277 279 278 276 279 261 267 264 243 244 242 249 254
321 324 327 329 331 333 337 339 341 343 343 343 344 342 339 338 340 338 335 334 329 325 324 324 324 321 314 309 297 277 269 269 269 270 270 259 249 249 256 236 247 255 262
322 324 327 329 332 337 342 344 345 348 346 346 344 338 337 339 341 340 339 334 334 333 332 330 331 338 342 333 329 314 262 253 254 255 253 254 250 247 232 244 254 257 257
319 323 325 329 335 340 344 345 350 351 347 346 338 335 336 337 336 343 335 336 339 337 338 346 349 352 10 353 349 8 338 242 243 247 236 226 236 248 249 243 242 249 258
318 322 324 332 337 341 343 350 353 352 346 336 333 332 334 331 335 333 332 334 335 333 344 354 1 5 17 13 2 8 19 34 37 329 288 253 236 242 237 241 248 251 257
319 320 326 334 337 339 340 344 351 351 350 342 338 331 329 328 331 333 333 333 335 343 354 359 9 5 13 16 23 19 28 31 34 40 46 65 214 225 239 252 255 253 261
319 320 329 333 335 340 342 346 344 347 350 355 347 338 335 334 336 337 338 336 342 348 1 5 8 16 13 26 31 39 51 59 69 70 77 67 59 52 38 304 274 260 272
315 320 326 331 335 338 343 344 342 345 347 350 353 352 347 343 341 341 342 343 348 355 359 3 6 10 16 21 29 29 30 33 38 46 47 41 39 39 35 22 10 345 323
313 320 326 332 335 340 342 340 341 344 347 346 349 352 353 354 352 352 350 354 353 349 349 350 357 3 8 16 25 32 28 30 35 33 29 21 15 9 4 14 15 6 348
311 322 328 329 334 341 342 341 342 345 344 347 349 351 350 352 354 355 355 351 347 344 340 337 338 346 356 6 10 29 27 20 20 21 24 21 16 11 11 357 356 359 358
318 330 325 326 335 342 341 342 344 343 343 344 346 350 351 350 349 350 352 352 348 338 334 330 324 325 329 343 354 358 357 358 357 358 2 5 5 4 7 7 2 357 355
331 326 323 325 333 338 339 339 343 343 344 344 343 347 349 352 348 347 348 349 348 346 335 325 318 313 310 312 324 339 342 347 347 339 342 347 350 353 355 1 2 359 358
325 319 318 323 329 333 334 339 342 343 343 344 345 346 348 348 347 347 347 348 348 345 341 331 319 312 304 290 288 300 322 336 330 329 329 332 336 342 348 351 355 355 355
314 313 318 320 325 328 331 337 340 341 342 342 346 346 347 346 345 345 347 346 348 346 343 337 329 317 305 296 279 272 273 285 301 304 308 313 320 329 335 340 345 349 350
308 311 316 318 322 323 326 331 335 339 340 341 344 345 345 345 344 344 345 345 347 344 342 338 332 323 312 297 287 272 264 261 268 280 289 297 304 314 321 329 335 339 345
304 310 312 318 322 320 322 327 332 336 336 339 342 343 344 344 344 344 344 344 344 343 342 340 337 330 318 304 294 282 269 260 258 262 273 282 290 301 311 316 325 331 337
Height
1554 1553 1551 1549 1546 1544 1541 1538 1535 1532 1528 1525 1521 1518 1514 1510 1506 1502 1498 1495 1492 1487 1484 1480 1476 1474 1471 1467 1465 1463 1459 1457 1451 1450 1451 1451 1448 1448 1449 1451 1452 1452 1452
1552 1550 1548 1546 1543 1540 1537 1534 1531 1528 1526 1522 1518 1514 1509 1505 1500 1496 1492 1489 1484 1480 1476 1473 1469 1466 1463 1460 1456 1453 1450 1448 1442 1439 1441 1441 1439 1439 1439 1438 1439 1440 1441
1550 1548 1546 1543 1540 1537 1534 1532 1529 1525 1522 1518 1514 1509 1505 1501 1496 1492 1488 1483 1478 1474 1470 1466 1461 1458 1454 1451 1448 1444 1440 1437 1434 1430 1428 1430 1430 1431 1429 1429 1428 1429 1429
1547 1545 1543 1541 1538 1535 1532 1529 1526 1522 1518 1514 1510 1505 1501 1496 1492 1488 1483 1477 1472 1467 1462 1458 1453 1449 1445 1442 1438 1435 1432 1428 1424 1422 1419 1418 1420 1422 1420 1420 1420 1420 1420
1544 1543 1541 1539 1536 1533 1529 1526 1522 1518 1514 1510 1504 1500 1496 1492 1488 1482 1476 1470 1463 1457 1452 1448 1444 1440 1437 1433 1429 1424 1422 1419 1417 1413 1410 1410 1408 1410 1410 1412 1412 1413 1411
1542 1541 1540 1536 1533 1530 1526 1522 1517 1513 1509 1504 1499 1495 1490 1486 1481 1476 1470 1462 1455 1449 1442 1437 1432 1428 1424 1421 1417 1414 1413 1409 1406 1405 1401 1400 1400 1399 1403 1404 1405 1405 1403
1539 1539 1537 1533 1530 1526 1522 1517 1513 1508 1504 1499 1494 1490 1485 1479 1474 1468 1462 1455 1448 1441 1435 1428 1421 1417 1413 1408 1404 1400 1397 1396 1395 1394 1391 1389 1389 1390 1394 1394 1395 1395 1394
1536 1536 1533 1530 1526 1521 1516 1512 1508 1503 1499 1494 1489 1484 1478 1473 1467 1461 1455 1447 1440 1433 1427 1420 1413 1406 1402 1398 1392 1387 1383 1381 1379 1380 1379 1378 1378 1380 1381 1383 1386 1386 1386
1534 1532 1530 1526 1521 1516 1512 1507 1503 1499 1494 1489 1484 1478 1472 1466 1461 1455 1448 1440 1431 1424 1417 1410 1404 1397 1390 1387 1382 1375 1368 1363 1366 1365 1365 1364 1367 1368 1369 1372 1374 1378 1376
1531 1529 1526 1522 1518 1513 1508 1503 1499 1495 1489 1484 1478 1473 1466 1460 1455 1450 1443 1434 1425 1416 1407 1399 1392 1387 1378 1373 1370 1364 1355 1349 1352 1351 1351 1352 1354 1355 1358 1360 1365 1366 1368
1528 1526 1522 1518 1514 1509 1504 1499 1494 1490 1484 1478 1472 1467 1462 1457 1449 1444 1438 1429 1420 1410 1399 1388 1378 1370 1363 1356 1353 1349 1341 1340 1339 1339 1339 1340 1343 1344 1347 1351 1355 1358 1359
1524 1522 1518 1514 1510 1505 1500 1495 1490 1485 1479 1473 1467 1461 1456 1451 1445 1437 1431 1425 1417 1407 1393 1380 1367 1355 1344 1334 1328 1324 1324 1327 1328 1328 1330 1331 1334 1337 1340 1344 1347 1348 1349
1520 1517 1514 1510 1506 1501 1495 1491 1487 1482 1476 1470 1464 1457 1450 1445 1438 1431 1424 1418 1409 1399 1389 1376 1360 1343 1329 1321 1316 1309 1310 1313 1316 1319 1321 1323 1326 1330 1334 1337 1339 1340 1341
1516 1513 1510 1506 1503 1498 1493 1489 1484 1479 1474 1468 1462 1456 1448 1442 1435 1427 1419 1410 1403 1394 1384 1371 1354 1342 1329 1322 1316 1311 1308 1309 1312 1315 1318 1321 1323 1325 1328 1331 1334 1335 1336
1512 1509 1506 1502 1499 1494 1490 1485 1482 1478 1474 1468 1463 1456 1448 1440 1434 1430 1422 1412 1404 1395 1383 1372 1354 1343 1332 1324 1321 1318 1315 1315 1316 1317 1319 1320 1322 1324 1326 1328 1329 1330 1331
1508 1505 1502 1498 1495 1490 1486 1482 1480 1475 1471 1466 1461 1456 1449 1443 1435 1427 1419 1411 1403 1394 1385 1375 1362 1352 1343 1334 1327 1324 1322 1321 1320 1320 1321 1322 1323 1324 1324 1325 1326 1327 1327
1503 1501 1497 1494 1490 1486 1482 1477 1473 1470 1466 1461 1456 1451 1446 1438 1430 1422 1414 1406 1398 1392 1385 1378 1371 1361 1354 1346 1340 1335 1330 1327 1326 1326 1325 1325 1325 1323 1323 1324 1324 1324 1324
1499 1496 1493 1490 1487 1482 1478 1474 1470 1465 1458 1455 1451 1446 1439 1432 1425 1418 1410 1402 1394 1389 1385 1380 1375 1369 1361 1356 1350 1345 1341 1336 1333 1332 1331 1329 1328 1326 1326 1324 1323 1322 1321
1495 1493 1490 1487 1483 1479 1475 1471 1466 1461 1456 1450 1444 1440 1433 1427 1421 1414 1407 1400 1393 1388 1384 1380 1377 1372 1367 1361 1356 1353 1350 1345 1342 1339 1336 1333 1331 1329 1327 1325 1323 1321 1319
1492 1489 1486 1483 1479 1475 1471 1467 1463 1458 1453 1448 1442 1435 1427 1421 1415 1409 1403 1398 1393 1388 1383 1379 1376 1373 1369 1365 1360 1356 1353 1349 1346 1343 1341 1338 1335 1331 1328 1325 1322 1319 1317
1488 1485 1482 1479 1475 1472 1468 1464 1460 1456 1451 1446 1440 1434 1428 1421 1415 1409 1402 1396 1391 1386 1382 1377 1374 1371 1368 1365 1362 1358 1354 1351 1348 1345 1342 1339 1336 1332 1329 1326 1322 1319 1316
1483 1481 1479 1475 1472 1469 1465 1462 1458 1453 1448 1443 1437 1431 1426 1420 1414 1408 1402 1396 1390 1384 1379 1375 1370 1367 1365 1363 1360 1357 1354 1350 1347 1344 1341 1339 1336 1333 1329 1325 1321 1317 1314
1479 1477 1475 1472 1468 1465 1462 1458 1454 1450 1445 1440 1434 1428 1422 1416 1411 1405 1399 1393 1387 1381 1376 1371 1366 1362 1360 1358 1356 1355 1352 1349 1346 1343 1341 1338 1335 1332 1328 1324 1321 1317 1313
1475 1472 1470 1468 1464 1461 1458 1454 1451 1447 1442 1437 1431 1425 1419 1413 1407 1402 1396 1389 1382 1376 1371 1365 1361 1357 1353 1350 1349 1349 1347 1346 1343 1341 1338 1336 1333 1330 1327 1325 1321 1318 1314
1471 1468 1466 1463 1460 1458 1455 1451 1447 1443 1438 1433 1428 1422 1416 1410 1404 1398 1392 1385 1379 1372 1366 1361 1355 1350 1346 1343 1341 1340 1339 1339 1338 1336 1334 1333 1331 1329 1326 1323 1321 1318 1314
1467 1464 1462 1459 1456 1453 1450 1447 1442 1438 1434 1430 1424 1418 1412 1406 1400 1394 1387 1381 1374 1368 1362 1355 1349 1344 1339 1336 1333 1331 1330 1330 1330 1330 1329 1328 1327 1325 1324 1321 1319 1317 1313